GW3210 Weather Reports


Display with metric or nautical units.
time (UTC)temp
F
wind
direction
speed
MPH
gust
MPH
rain 1hr
in
rain 24hr
in
rain mn
in
humidity
%
barometer
mb
20260508031116 64 338 2.0 3.0 0.00 0.00 0.00 35 1017.7
20260508030116 64 0 2.0 3.0 0.00 0.00 0.00 35 1017.7
20260508025116 64 0 3.0 4.0 0.00 0.00 0.00 35 1017.7
20260508024137 65 338 3.0 4.0 0.00 0.00 0.00 34 1017.9
20260508023116 65 0 1.0 1.0 0.00 0.00 0.00 34 1017.9
20260508022116 66 0.0 1.0 0.00 0.00 0.00 33 1017.8
20260508021116 67 338 1.0 2.0 0.00 0.00 0.00 32 1017.9
20260508020136 67 293 2.0 3.0 0.00 0.00 0.00 30 1018.1
20260508015116 68 23 1.0 2.0 0.00 0.00 0.00 26 1018.1
20260508014115 68 338 2.0 3.0 0.00 0.00 0.00 25 1018.1
20260508013137 68 0 3.0 4.0 0.00 0.00 0.00 24 1018.2
20260508012136 69 315 2.0 4.0 0.00 0.00 0.00 23 1018.2
20260508011115 71 0.0 2.0 0.00 0.00 0.00 21 1018.3
20260508010116 71 338 2.0 3.0 0.00 0.00 0.00 20 1018.4
20260508005156 71 0 4.0 5.0 0.00 0.00 0.00 20 1018.5
20260508004116 72 0 2.0 4.0 0.00 0.00 0.00 21 1018.6
20260508003116 72 293 3.0 4.0 0.00 0.00 0.00 22 1018.6
20260508002116 71 338 6.0 9.0 0.00 0.00 0.00 21 1018.7
20260508001116 71 0 4.0 8.0 0.00 0.00 0.00 21 1018.7
20260508000116 72 45 2.0 3.0 0.00 0.00 0.00 23 1018.8
20260507235115 71 23 1.0 2.0 0.00 0.00 0.00 24 1018.9
20260507234115 72 338 7.0 10.0 0.00 0.00 0.00 25 1019.2
20260507233115 72 338 2.0 5.0 0.00 0.00 0.00 24 1019.3
20260507232115 71 315 5.0 10.0 0.00 0.00 0.00 24 1019.3
20260507231115 72 338 4.0 6.0 0.00 0.00 0.00 25 1019.6
20260507230136 71 338 4.0 8.0 0.00 0.00 0.00 25 1019.7
20260507225116 71 248 4.0 9.0 0.00 0.00 0.00 23 1019.8
20260507224135 70 23 3.0 5.0 0.00 0.00 0.00 24 1019.8
20260507223118 70 293 5.0 9.0 0.00 0.00 0.00 24 1020.0
20260507222117 70 0 4.0 8.0 0.00 0.00 0.00 28 1020.0
20260507221118 70 293 4.0 7.0 0.00 0.00 0.00 25 1020.2
20260507220117 69 248 2.0 5.0 0.00 0.00 0.00 26 1020.1
20260507215117 69 270 6.0 10.0 0.00 0.00 0.00 28 1020.3
20260507214117 68 0 3.0 6.0 0.00 0.00 0.00 28 1020.4
20260507213115 67 338 3.0 5.0 0.00 0.00 0.00 33 1020.6
20260507212117 68 293 4.0 7.0 0.00 0.00 0.00 30 1020.6
20260507211117 67 338 1.0 3.0 0.00 0.00 0.00 33 1020.7
20260507210138 67 293 3.0 7.0 0.00 0.00 0.00 33 1020.8
20260507205117 67 270 3.0 4.0 0.00 0.00 0.00 34 1020.9
20260507204158 66 270 3.0 6.0 0.00 0.00 0.00 34 1021.0
20260507203138 67 113 1.0 2.0 0.00 0.00 0.00 34 1021.1
20260507202117 66 293 3.0 5.0 0.00 0.00 0.00 35 1021.2
20260507201117 67 315 4.0 8.0 0.00 0.00 0.00 34 1021.4
20260507200239 66 23 1.0 2.0 0.00 0.00 0.00 35 1021.4
20260507195138 66 293 1.0 3.0 0.00 0.00 0.00 34 1021.5
20260507194117 65 23 3.0 5.0 0.00 0.00 0.00 37 1021.7
20260507193118 65 338 4.0 8.0 0.00 0.00 0.00 39 1021.7
20260507192117 64 315 3.0 5.0 0.00 0.00 0.00 40 1021.7
20260507191117 65 180 2.0 4.0 0.00 0.00 0.00 37 1021.8
20260507190117 63 248 2.0 3.0 0.00 0.00 0.00 41 1021.9
20260507185118 63 293 3.0 7.0 0.00 0.00 0.00 42 1022.0
20260507184117 63 225 2.0 4.0 0.00 0.00 0.00 39 1022.0
20260507183117 63 248 2.0 4.0 0.00 0.00 0.00 41 1022.1
20260507182117 62 315 2.0 5.0 0.00 0.00 0.00 42 1022.2
20260507181117 61 293 4.0 7.0 0.00 0.00 0.00 44 1022.3
20260507180117 61 315 4.0 8.0 0.00 0.00 0.00 45 1022.3
20260507175117 60 45 2.0 3.0 0.00 0.00 0.00 46 1022.4
20260507174118 59 270 2.0 5.0 0.00 0.00 0.00 47 1022.3
20260507173117 60 315 4.0 8.0 0.00 0.00 0.00 48 1022.4
20260507172117 59 270 4.0 6.0 0.00 0.00 0.00 52 1022.3
20260507171117 57 293 4.0 7.0 0.00 0.00 0.00 52 1022.3
20260507170117 56 293 5.0 8.0 0.00 0.00 0.00 53 1022.3
20260507165117 55 315 4.0 7.0 0.00 0.00 0.00 55 1022.3
20260507164117 53 270 3.0 4.0 0.00 0.00 0.00 58 1022.3
20260507163117 53 293 4.0 6.0 0.00 0.00 0.00 56 1022.3
20260507162137 52 338 3.0 4.0 0.00 0.00 0.00 58 1022.2
20260507161116 52 315 3.0 4.0 0.00 0.00 0.00 59 1022.3
20260507160137 52 315 4.0 6.0 0.00 0.00 0.00 59 1022.3
20260507155117 51 338 2.0 3.0 0.00 0.00 0.00 60 1022.3
20260507154117 51 293 3.0 4.0 0.00 0.00 0.00 61 1022.4
20260507153117 50 293 3.0 4.0 0.00 0.00 0.00 61 1022.4
20260507152116 50 293 4.0 7.0 0.00 0.00 0.00 61 1022.4
20260507151137 50 338 3.0 5.0 0.00 0.00 0.00 62 1022.4
20260507150116 49 338 5.0 8.0 0.00 0.00 0.00 61 1022.4
20260507144117 49 293 4.0 8.0 0.00 0.00 0.00 61 1022.3
20260507143116 49 293 4.0 7.0 0.00 0.00 0.00 61 1022.3
20260507142117 49 338 4.0 5.0 0.00 0.00 0.00 61 1022.3
20260507141116 49 293 6.0 9.0 0.00 0.00 0.00 61 1022.3
20260507140158 48 315 4.0 6.0 0.00 0.00 0.00 61 1022.1
20260507135116 48 315 4.0 6.0 0.00 0.00 0.00 62 1022.1
20260507134116 48 315 5.0 9.0 0.00 0.00 0.00 62 1022.2
20260507133117 48 315 4.0 5.0 0.00 0.00 0.00 62 1022.1
20260507132117 48 338 2.0 4.0 0.00 0.00 0.00 63 1022.1
20260507131117 48 338 3.0 5.0 0.00 0.00 0.00 63 1022.1
20260507130117 48 315 2.0 3.0 0.00 0.00 0.00 63 1022.3
20260507125116 48 315 2.0 4.0 0.00 0.00 0.00 62 1022.3
20260507124116 48 338 4.0 9.0 0.00 0.00 0.00 62 1022.3
20260507123116 48 338 4.0 8.0 0.00 0.00 0.00 62 1022.2
20260507122116 48 315 4.0 7.0 0.00 0.00 0.00 61 1022.3
20260507121116 49 315 4.0 6.0 0.00 0.00 0.00 61 1022.3
20260507120116 49 315 5.0 8.0 0.00 0.00 0.00 61 1022.4
20260507115116 49 315 8.0 11.0 0.00 0.00 0.00 61 1022.5
20260507114117 49 315 5.0 8.0 0.00 0.00 0.00 61 1022.6
20260507113116 50 338 6.0 10.0 0.00 0.00 0.00 62 1022.5
20260507112116 50 293 6.0 8.0 0.00 0.00 0.00 62 1022.5
20260507111116 50 315 3.0 6.0 0.00 0.00 0.00 61 1022.4
20260507110137 50 315 4.0 7.0 0.00 0.00 0.00 61 1022.5
20260507105117 50 315 4.0 8.0 0.00 0.00 0.00 61 1022.6
20260507104116 51 293 3.0 6.0 0.00 0.00 0.00 61 1022.6
20260507103116 51 293 6.0 8.0 0.00 0.00 0.00 62 1022.6
20260507102136 51 338 5.0 8.0 0.00 0.00 0.00 62 1022.7
20260507101116 51 315 3.0 5.0 0.00 0.00 0.00 62 1022.7
20260507100116 51 315 4.0 8.0 0.00 0.00 0.00 62 1022.7
20260507095116 51 293 3.0 5.0 0.00 0.00 0.00 63 1022.8
20260507094116 51 338 3.0 4.0 0.00 0.00 0.00 63 1022.9
20260507093116 51 338 4.0 6.0 0.00 0.00 0.00 64 1023.0
20260507092116 51 315 2.0 4.0 0.00 0.00 0.00 64 1023.0
20260507091116 51 315 3.0 4.0 0.00 0.00 0.00 63 1023.1
20260507090116 51 315 3.0 7.0 0.00 0.00 0.00 63 1023.1
20260507085116 51 293 3.0 3.0 0.00 0.00 0.00 63 1023.2
20260507084116 52 293 4.0 6.0 0.00 0.00 0.00 63 1023.1
20260507083116 52 293 4.0 7.0 0.00 0.00 0.00 63 1023.2
20260507082116 52 293 4.0 7.0 0.00 0.00 0.00 63 1023.2
20260507081216 52 293 4.0 5.0 0.00 0.00 0.00 63 1023.2
20260507080115 52 293 4.0 6.0 0.00 0.00 0.00 63 1023.2
20260507075115 52 315 4.0 7.0 0.00 0.00 0.00 63 1023.2
20260507074137 52 293 3.0 3.0 0.00 0.00 0.00 63 1023.2
20260507073115 52 315 4.0 10.0 0.00 0.00 0.00 63 1023.1
20260507072116 52 293 4.0 8.0 0.00 0.00 0.00 63 1023.0
20260507071116 52 315 4.0 8.0 0.00 0.00 0.00 63 1022.9
20260507070115 52 315 4.0 7.0 0.00 0.00 0.00 63 1022.9
20260507065116 52 315 4.0 7.0 0.00 0.00 0.00 63 1022.9
20260507064136 52 293 4.0 7.0 0.00 0.00 0.00 63 1022.9
20260507063116 52 315 4.0 6.0 0.00 0.00 0.00 63 1023.0
20260507062118 52 338 3.0 5.0 0.00 0.00 0.00 63 1022.9
20260507061116 52 293 7.0 10.0 0.00 0.00 0.00 62 1022.9
20260507060137 53 338 4.0 7.0 0.00 0.00 0.00 62 1022.9
20260507055116 53 315 8.0 13.0 0.00 0.00 0.00 62 1022.8
20260507054116 53 293 6.0 9.0 0.00 0.00 0.00 62 1022.8
20260507053116 53 315 7.0 10.0 0.00 0.00 0.00 62 1022.9
20260507052157 53 338 5.0 9.0 0.00 0.00 0.00 62 1022.8
20260507051116 53 315 3.0 4.0 0.00 0.00 0.00 62 1022.9
20260507050116 54 0 5.0 10.0 0.00 0.00 0.00 61 1022.9
20260507045116 54 293 6.0 11.0 0.00 0.00 0.00 60 1022.8
20260507044116 54 338 6.0 9.0 0.00 0.00 0.00 60 1022.8
20260507043116 55 338 3.0 5.0 0.00 0.00 0.00 60 1022.8
20260507042115 55 338 9.0 13.0 0.00 0.00 0.00 60 1022.8
20260507041117 55 338 8.0 11.0 0.00 0.00 0.00 59 1022.7
20260507040116 56 0 10.0 13.0 0.00 0.00 0.00 59 1022.8
20260507035116 56 338 9.0 11.0 0.00 0.00 0.00 59 1022.6
20260507034116 56 315 10.0 15.0 0.00 0.00 0.00 59 1022.4
20260507033116 57 315 5.0 9.0 0.00 0.00 0.00 59 1022.3
20260507032115 57 338 5.0 8.0 0.00 0.00 0.00 59 1022.1